Weather History for PHMK - May, 2013

Change the Weather History Date:

Friday, May 31, 2013

  Actual Average Record
Temperature  
Mean Temperature 73 °F -  
Max Temperature 82 °F 82 °F 86 °F (1969)
Min Temperature 64 °F 67 °F 61 °F (1957)
Cooling Degree Days 8    
Growing Degree Days 23 (Base 50)    
Moisture  
Dew Point 70 °F    
Average Humidity 85    
Maximum Humidity 100    
Minimum Humidity 69    
Precipitation  
Precipitation 0.00 in - - ()
Sea Level Pressure  
Sea Level Pressure 30.02 in    
Wind  
Wind Speed 8 mph (NE)    
Max Wind Speed 18 mph    
Max Gust Speed 28 mph    
Visibility 10 miles    
Events      
Averages and records for this station are not official NWS values.
T = Trace of Precipitation, MM = Missing Value Source: NWS Daily Summary

Daily Weather History Graph

Daily Weather History Graph

Search for Another Location

Airport or City:

Trip Planner

Search our weather history database for the weather conditions in past years. The results will help you decide how hot, cold, wet, or windy it might be!

Date:

Astronomy

May. 31, 2013 Rise Set
Actual Time 5:46 AM HST 7:06 PM HST
Civil Twilight 5:21 AM HST 7:30 PM HST
Nautical Twilight 4:52 AM HST 7:59 PM HST
Astronomical Twilight 4:22 AM HST 8:30 PM HST
Moon 12:22 AM HST (5/31) 12:33 PM HST (5/31)
Length of Visible Light 14h 08m
Length of Day
13h 19m
Waning Gibbous, 49% of the Moon is Illuminated
May 31
Waning Gibbous
Jun 8
New
Jun 16
First Quarter
Jun 23
Full
Jun 29
Last Quarter

Hourly Weather History & Observations

Time (HST) Temp. Heat Index Dew Point Humidity Pressure Visibility Wind Dir Wind Speed Gust Speed Precip Events Conditions
12:54 AM 71.1 °F - 71.1 °F 100% 30.01 in 10.0 mi NNE 5.8 mph - N/A   Clear
1:24 AM 71.6 °F - 71.6 °F 100% 30.00 in 10.0 mi NE 5.8 mph - N/A   Partly Cloudy
1:54 AM 71.1 °F - 70.0 °F 96% 30.00 in 10.0 mi NE 4.6 mph - N/A   Clear
2:27 AM 69.8 °F - 69.8 °F 100% 29.98 in 10.0 mi Calm Calm - N/A   Partly Cloudy
2:54 AM 70.0 °F - 69.1 °F 97% 29.99 in 10.0 mi NNE 4.6 mph - N/A   Partly Cloudy
3:54 AM 66.9 °F - 66.9 °F 100% 29.99 in 10.0 mi North 3.5 mph - N/A   Clear
4:15 AM 64.4 °F - 64.4 °F 100% 29.98 in 10.0 mi Calm Calm - N/A   Partly Cloudy
4:54 AM 66.0 °F - 66.0 °F 100% 30.00 in 10.0 mi North 3.5 mph - N/A   Partly Cloudy
5:54 AM 70.0 °F - 70.0 °F 100% 30.01 in 10.0 mi NNE 3.5 mph - N/A   Clear
6:54 AM 73.9 °F - 71.1 °F 91% 30.02 in 10.0 mi Variable 3.5 mph - N/A   Scattered Clouds
7:54 AM 75.9 °F - 71.1 °F 85% 30.02 in 10.0 mi NE 11.5 mph 19.6 mph N/A   Scattered Clouds
8:54 AM 79.0 °F - 71.1 °F 77% 30.03 in 10.0 mi NE 16.1 mph 23.0 mph N/A   Scattered Clouds
9:54 AM 79.0 °F - 71.1 °F 77% 30.04 in 10.0 mi NE 15.0 mph 20.7 mph N/A   Mostly Cloudy
10:54 AM 79.0 °F - 71.1 °F 77% 30.02 in 10.0 mi NE 16.1 mph 27.6 mph N/A   Mostly Cloudy
11:01 AM 80.6 °F 84.6 °F 71.6 °F 74% 30.02 in 10.0 mi NNE 12.7 mph 26.5 mph N/A   Overcast
11:12 AM 80.6 °F 84.6 °F 71.6 °F 74% 30.01 in 10.0 mi NE 17.3 mph 26.5 mph N/A   Mostly Cloudy
11:54 AM 80.1 °F 83.6 °F 71.1 °F 74% 30.02 in 10.0 mi NE 16.1 mph 27.6 mph N/A   Mostly Cloudy
12:54 PM 82.0 °F 86.7 °F 72.0 °F 71% 30.01 in 10.0 mi NE 18.4 mph 26.5 mph N/A   Mostly Cloudy
1:54 PM 81.0 °F 84.4 °F 70.0 °F 69% 30.00 in 10.0 mi NE 16.1 mph 20.7 mph N/A   Scattered Clouds
2:54 PM 81.0 °F 84.9 °F 71.1 °F 72% 30.00 in 10.0 mi NE 15.0 mph 20.7 mph N/A   Mostly Cloudy
3:54 PM 81.0 °F 84.4 °F 70.0 °F 69% 30.00 in 10.0 mi NE 13.8 mph 23.0 mph N/A   Clear
4:54 PM 75.9 °F - 71.1 °F 85% 30.01 in 10.0 mi NNE 15.0 mph 26.5 mph N/A   Scattered Clouds
5:54 PM 77.0 °F - 70.0 °F 79% 30.01 in 10.0 mi NE 17.3 mph 25.3 mph N/A   Scattered Clouds
6:54 PM 75.0 °F - 69.1 °F 82% 30.03 in 10.0 mi NNE 11.5 mph 23.0 mph N/A   Clear
7:54 PM 73.9 °F - 70.0 °F 87% 30.04 in 10.0 mi NE 9.2 mph 17.3 mph N/A   Clear
8:54 PM 73.0 °F - 69.1 °F 87% 30.06 in 10.0 mi NE 8.1 mph - N/A   Clear
9:54 PM 72.0 °F - 68.0 °F 87% 30.07 in 10.0 mi NE 8.1 mph - N/A   Clear
10:54 PM 73.0 °F - 68.0 °F 84% 30.08 in 10.0 mi NE 8.1 mph - N/A   Partly Cloudy
11:54 PM 72.0 °F - 66.9 °F 84% 30.07 in 10.0 mi NNE 3.5 mph - N/A   Clear